TimeEDT,TemperatureF,Dew PointF,Humidity,Sea Level PressureIn,VisibilityMPH,Wind Direction,Wind SpeedMPH,Gust SpeedMPH,PrecipitationIn,Events,Conditions,WindDirDegrees,DateUTC
12:53 AM,78.1,69.1,74,30.07,10.0,Calm,Calm,-,N/A,,Mostly Cloudy,0,2013-05-20 04:53:00
1:53 AM,77.0,68.0,74,30.05,10.0,ESE,5.8,-,N/A,,Scattered Clouds,110,2013-05-20 05:53:00
2:53 AM,77.0,70.0,79,30.02,10.0,SE,3.5,-,N/A,,Partly Cloudy,140,2013-05-20 06:53:00
3:53 AM,77.0,70.0,79,30.03,10.0,SSE,3.5,-,N/A,,Scattered Clouds,150,2013-05-20 07:53:00
4:53 AM,75.9,70.0,82,30.04,10.0,South,4.6,-,N/A,,Scattered Clouds,180,2013-05-20 08:53:00
5:53 AM,75.9,68.0,76,30.03,10.0,South,4.6,-,N/A,,Scattered Clouds,180,2013-05-20 09:53:00
6:53 AM,75.0,68.0,79,30.05,10.0,South,3.5,-,N/A,,Overcast,190,2013-05-20 10:53:00
7:53 AM,77.0,69.1,76,30.07,10.0,Calm,Calm,-,N/A,,Mostly Cloudy,0,2013-05-20 11:53:00
8:53 AM,78.1,70.0,76,30.08,10.0,South,5.8,-,N/A,,Mostly Cloudy,170,2013-05-20 12:53:00
9:53 AM,81.0,70.0,69,30.09,10.0,SE,5.8,-,N/A,,Scattered Clouds,130,2013-05-20 13:53:00
10:53 AM,82.9,71.1,67,30.08,10.0,SSW,8.1,-,N/A,,Partly Cloudy,210,2013-05-20 14:53:00
11:53 AM,84.9,71.1,63,30.08,10.0,WSW,9.2,-,N/A,,Partly Cloudy,240,2013-05-20 15:53:00
12:53 PM,84.9,70.0,61,30.06,10.0,WSW,6.9,-,N/A,,Partly Cloudy,250,2013-05-20 16:53:00
1:53 PM,87.1,70.0,57,30.04,10.0,WSW,8.1,-,N/A,,Scattered Clouds,240,2013-05-20 17:53:00
2:53 PM,89.1,69.1,52,30.01,10.0,WSW,10.4,-,N/A,,Scattered Clouds,240,2013-05-20 18:53:00
3:53 PM,88.0,73.0,61,29.99,10.0,West,15.0,21.9,N/A,,Mostly Cloudy,280,2013-05-20 19:53:00
4:48 PM,77.0,66.2,69,30.04,10.0,NE,17.3,27.6,N/A,Thunderstorm,Thunderstorm,40,2013-05-20 20:48:00
4:53 PM,77.0,64.9,66,30.04,10.0,NNE,17.3,27.6,N/A,Thunderstorm,Thunderstorm,30,2013-05-20 20:53:00
5:53 PM,78.1,63.0,60,30.01,10.0,Variable,5.8,-,N/A,,Mostly Cloudy,0,2013-05-20 21:53:00
6:53 PM,82.0,64.0,54,30.00,10.0,East,4.6,-,N/A,,Scattered Clouds,90,2013-05-20 22:53:00
7:53 PM,79.0,69.1,72,30.05,10.0,East,5.8,-,N/A,,Mostly Cloudy,100,2013-05-20 23:53:00
8:53 PM,75.9,71.1,85,30.06,10.0,East,4.6,-,0.01,,Mostly Cloudy,80,2013-05-21 00:53:00
10:53 PM,75.0,69.1,82,30.06,10.0,Calm,Calm,-,N/A,,Scattered Clouds,0,2013-05-21 02:53:00
11:53 PM,73.0,68.0,84,30.03,10.0,ENE,5.8,-,N/A,,Scattered Clouds,60,2013-05-21 03:53:00